Weather History for KBNA - September, 2012

Change the Weather History Date:

Monday, September 17, 2012

  Actual Average Record
Temperature  
Mean Temperature 70 °F 71 °F  
Max Temperature 72 °F 82 °F 99 °F (1896)
Min Temperature 68 °F 60 °F 45 °F (1961)
Degree Days  
Heating Degree Days 0    
Month to date heating degree days 0  
Since 1 July heating degree days 0  
Cooling Degree Days 5    
Month to date cooling degree days 170  
Year to date cooling degree days 1916  
Growing Degree Days 20 (Base 50)    
Moisture  
Dew Point 67 °F    
Average Humidity 90    
Maximum Humidity 100    
Minimum Humidity 79    
Precipitation  
Precipitation 2.01 in 0.11 in 2.93 in (1877)
Month to date precipitation 5.52 1.87  
Year to date precipitation 35.78 34.12  
Snow  
Snow 0.00 in 0.00 in 0.00 in (2002)
Month to date snowfall 0.0 0.0  
Since 1 July snowfall 0.0 0.0  
Since 1 September snowfall 0.0 0.0  
Snow Depth 0.00 in    
Sea Level Pressure  
Sea Level Pressure 29.89 in    
Wind  
Wind Speed 2 mph (East)    
Max Wind Speed 9 mph    
Max Gust Speed 13 mph    
Visibility 4 miles    
Events Rain    
T = Trace of Precipitation, MM = Missing Value Source: NWS Daily Summary

Daily Weather History Graph

Daily Weather History Graph

Search for Another Location

Airport or City:

Trip Planner

Search our weather history database for the weather conditions in past years. The results will help you decide how hot, cold, wet, or windy it might be!

Date:

Astronomy

Sep. 17, 2012 Rise Set
Actual Time 6:31 AM CDT 6:50 PM CDT
Civil Twilight 6:05 AM CDT 7:15 PM CDT
Nautical Twilight 5:35 AM CDT 7:46 PM CDT
Astronomical Twilight 5:04 AM CDT 8:16 PM CDT
Moon 8:14 AM CDT (9/17) 7:38 PM CDT (9/17)
Length of Visible Light 13h 10m
Length of Day
12h 19m
Waxing Crescent, 3% of the Moon is Illuminated
Sep 17
Waxing Crescent
Sep 22
First Quarter
Sep 29
Full
Oct 8
Last Quarter
Oct 15
New

Hourly Weather History & Observations

Time (CDT) Temp. Dew Point Humidity Pressure Visibility Wind Dir Wind Speed Gust Speed Precip Events Conditions
12:53 AM 71.1 °F 64.9 °F 81% 30.00 in 10.0 mi NNE 3.5 mph - N/A   Overcast
1:53 AM 71.1 °F 66.9 °F 87% 29.99 in 10.0 mi Calm Calm - N/A   Overcast
2:53 AM 70.0 °F 66.9 °F 90% 29.96 in 10.0 mi Calm Calm - 0.00 in   Overcast
3:53 AM 69.1 °F 66.9 °F 93% 29.96 in 9.0 mi Calm Calm - N/A   Mostly Cloudy
4:53 AM 69.1 °F 66.9 °F 93% 29.96 in 8.0 mi Calm Calm - 0.01 in Rain Light Rain
5:53 AM 69.1 °F 68.0 °F 96% 29.96 in 5.0 mi Calm Calm - 0.03 in Rain Light Rain
6:53 AM 69.8 °F 68.0 °F 94% 29.98 in 2.0 mi Calm Calm - N/A Rain Light Rain
7:33 AM 69.8 °F 68.0 °F 94% 29.98 in 2.0 mi SSE 3.5 mph - 0.02 in Rain Light Rain
7:53 AM 69.1 °F 68.0 °F 96% 29.96 in 2.0 mi Calm Calm - 0.07 in Rain Rain
8:13 AM 69.8 °F 68.0 °F 94% 29.97 in 1.5 mi Calm Calm - 0.02 in Rain Rain
8:44 AM 69.8 °F 66.2 °F 88% 29.97 in 0.8 mi Calm Calm - 0.17 in Rain Heavy Rain
8:53 AM 68.0 °F 66.9 °F 96% 29.95 in 1.0 mi East 3.5 mph - 0.32 in Rain Heavy Rain
9:16 AM 68.0 °F 66.2 °F 94% 29.98 in 2.0 mi Calm Calm - 0.11 in Rain Rain
9:44 AM 68.0 °F 66.2 °F 94% 29.97 in 1.5 mi East 5.8 mph - 0.27 in Rain Heavy Rain
9:53 AM 68.0 °F 66.9 °F 96% 29.95 in 1.5 mi East 4.6 mph - 0.31 in Rain Rain
10:00 AM 68.0 °F 66.2 °F 94% 29.97 in 1.5 mi East 3.5 mph - 0.01 in Rain Light Rain
10:12 AM 68.0 °F 66.2 °F 94% 29.96 in 1.0 mi East 4.6 mph - N/A Rain Heavy Rain
10:21 AM 68.0 °F 66.2 °F 94% 29.96 in 2.5 mi East 5.8 mph - 0.17 in Rain Rain
10:53 AM 68.0 °F 66.9 °F 96% 29.94 in 3.0 mi ESE 5.8 mph - 0.24 in Rain Light Rain
11:06 AM 68.0 °F 66.2 °F 94% 29.96 in 3.0 mi East 8.1 mph - 0.02 in Rain Light Rain
11:53 AM 69.1 °F 66.9 °F 93% 29.93 in 4.0 mi ENE 3.5 mph - 0.05 in Rain Rain
12:14 PM 68.0 °F 66.2 °F 94% 29.94 in 3.0 mi Calm Calm - 0.06 in Rain Rain
12:26 PM 68.0 °F 66.2 °F 94% 29.93 in 2.5 mi NE 3.5 mph - 0.11 in Rain Rain
12:53 PM 68.0 °F 66.9 °F 96% 29.90 in 1.0 mi Calm Calm - 0.31 in Rain Heavy Rain
1:00 PM 69.8 °F 66.2 °F 88% 29.90 in 2.0 mi ENE 5.8 mph - 0.06 in Rain Heavy Rain
1:31 PM 69.8 °F 68.0 °F 94% 29.89 in 3.0 mi East 5.8 mph - 0.11 in Rain Rain
1:53 PM 70.0 °F 68.0 °F 93% 29.86 in 5.0 mi ESE 8.1 mph - 0.13 in Rain Light Rain
2:32 PM 69.8 °F 68.0 °F 94% 29.86 in 2.0 mi ESE 4.6 mph - 0.10 in Rain Heavy Rain
2:42 PM 69.8 °F 68.0 °F 94% 29.86 in 5.0 mi ESE 5.8 mph - 0.11 in Rain Light Rain
2:53 PM 70.0 °F 68.0 °F 93% 29.84 in 4.0 mi ESE 5.8 mph - 0.12 in Rain Light Rain
3:53 PM 70.0 °F 68.0 °F 93% 29.81 in 10.0 mi Calm Calm - 0.04 in Rain Light Rain
4:53 PM 70.0 °F 69.1 °F 97% 29.79 in 6.0 mi Calm Calm - 0.03 in Rain Rain
5:05 PM 69.8 °F 68.0 °F 94% 29.80 in 6.0 mi Calm Calm - 0.02 in Rain Light Rain
5:53 PM 70.0 °F 69.1 °F 97% 29.79 in 5.0 mi Calm Calm - 0.06 in Rain Light Rain
6:22 PM 69.8 °F 68.0 °F 94% 29.80 in 5.0 mi Calm Calm - 0.02 in Rain Light Rain
6:53 PM 70.0 °F 68.0 °F 93% 29.78 in 7.0 mi East 3.5 mph - 0.03 in Rain Light Rain
7:09 PM 69.8 °F 68.0 °F 94% 29.79 in 8.0 mi Calm Calm - 0.00 in   Overcast
7:53 PM 70.0 °F 68.0 °F 93% 29.77 in 7.0 mi Calm Calm - 0.02 in Rain Light Rain
8:13 PM 69.8 °F 68.0 °F 94% 29.78 in 5.0 mi Calm Calm - 0.02 in Rain Light Rain
8:51 PM 69.8 °F 68.0 °F 94% 29.78 in 6.0 mi Calm Calm - 0.04 in Rain Light Rain
8:53 PM 70.0 °F 68.0 °F 93% 29.76 in 6.0 mi Calm Calm - 0.04 in Rain Light Rain
9:53 PM 69.1 °F 68.0 °F 96% 29.77 in 4.0 mi West 3.5 mph - 0.06 in Rain Light Rain
10:34 PM 69.8 °F 68.0 °F 94% 29.78 in 8.0 mi WNW 4.6 mph - 0.02 in Rain Light Rain
10:53 PM 69.1 °F 68.0 °F 96% 29.77 in 6.0 mi Calm Calm - 0.03 in Rain Light Rain
11:53 PM 69.1 °F 66.9 °F 93% 29.74 in 7.0 mi NNW 5.8 mph - 0.06 in Rain Light Rain